Powrót do katalogu

STARLINK-34095

AktywnyŁącznośćVLEO
NORAD 63809·PAYLOAD·🇺🇸 United States

Wystrzelony May 4, 2025 z Cape Canaveral Space Force Station

Loading…

Następne Przeloty (najbliższe 24 godziny)

TLE

ŚwieżeSource: CelesTrak SupGP

Epoka: Sep 14, 2026, 21:42 UTC

1 63809C 25092F   26257.90465278 -.00018760  00000+0 -67938-3 0  2573
2 63809  43.0003 184.3731 0001313 265.4626 248.0620 15.27593010    10

Śledź STARLINK-34095 w czasie rzeczywistym z AllMySat

Download on the App Store